Regional Weather Roundup
Issued by NWS

Home | Current Version | Previous Version | Text Only | Print | Product List | Glossary Off
Versions: 1 2 3 4 5 6 7 8 9 10 11 12 13 14 15 16 17 18 19 20 21 22 23 24 25 26 27 28 29 30 31 32 33 34 35 36 37 38 39 40 41 42 43 44 45 46 47 48 49 50

000
ASUS43 KLOT 281000
RWRIL

ILLINOIS REGIONAL WEATHER ROUNDUP
NATIONAL WEATHER SERVICE CHICAGO/ROMEOVILLE IL
500 AM CDT TUE JUL 28 2015

NOTE: "FAIR" INDICATES FEW OR NO CLOUDS BELOW 12,000 FEET WITH NO
SIGNIFICANT WEATHER AND/OR OBSTRUCTIONS TO VISIBILITY.

* THESE STATIONS ARE NOT UNDER NWS QUALITY CONTROL. THEY ALSO MAY NOT
  REPORT WEATHER SUCH AS PRECIPITATION OR FOG.

ILZ001-002-007-009-015-016-024-281100-
NORTHWEST ILLINOIS

CITY           SKY/WX    TMP DP  RH WIND       PRES   REMARKS
MOLINE         PTCLDY    71  68  90 E7        29.94S
STERLING*      CLEAR     66  64  94 E6        29.96S
$$

ILZ003-004-008-010-011-017-018-281100-
NORTH CENTRAL ILLINOIS

CITY           SKY/WX    TMP DP  RH WIND       PRES   REMARKS
ROCKFORD       PTCLDY    69  63  81 E5        30.00S
$$

ILZ005-006-012>014-019>023-281100-
NORTHEAST ILLINOIS

CITY           SKY/WX    TMP DP  RH WIND       PRES   REMARKS
CHICAGO-OHARE  CLEAR     69  66  90 CALM      29.98F
CHICAGO-MIDWAY CLEAR     74  66  76 E5        29.98S
AURORA         CLEAR     66  62  87 E3        29.99S FOG
LANSING*       CLEAR     67  60  77 CALM      29.99S
WAUKEGAN       CLEAR     64  63  96 CALM      29.99F
DUPAGE AIRPORT CLEAR     68  65  90 CALM      29.99S
WHEELING       CLEAR     68  65  90 CALM      30.00S
NORTHERLY ISL    N/A     72  67  84 E2          N/A
$$

LMZ740>746-281100-
SOUTHERN LAKE MICHIGAN

STATION/POSITION SKY/WX   TEMP    WIND        PRES    VSBY  WAVE
                          AIR SEA DIR/SP/G                  HT/PER
                          (F)     (DEG/KT/KT) (MB)    (MI)  (FT/S)
HARRISON CRIB              74     110/  5/  6   N/A
BURNHAM HARBOR             72      80/  1/  4   N/A
CALUMET HARBOR             74      80/  4/  5   N/A
BURNS HARBOR               77     130/  8/ 14 1015.9F
MICHIGAN CITY              72     110/  8/  9   N/A
MICHIGAN CITY 6N           74 74  150/  6/  8   N/A           1
ST. JOSEPH                 71 73  170/  8/  8   N/A           1
$$

ILZ025>027-034>036-040-047-049-050-058-095>099-281100-
WEST-CENTRAL ILLINOIS

CITY           SKY/WX    TMP DP  RH WIND       PRES   REMARKS
QUINCY         CLEAR     71  69  93 SE3       29.93S
MACOMB*        CLEAR     70  70 100 CALM      29.96S FOG
$$

ILZ028>032-037-038-041>044-048-051>054-059>061-281100-
CENTRAL ILLINOIS

CITY           SKY/WX    TMP DP  RH WIND       PRES   REMARKS
DECATUR        PTCLDY    72  70  93 CALM      29.95S
PEORIA         CLEAR     74  71  91 CALM      29.95S FOG
SPRINGFIELD    PTCLDY    76  73  91 NE3       29.95R
TAYLORVILLE    NOT AVBL
$$

ILZ033-039-045-046-055>057-062-063-281100-
EAST-CENTRAL ILLINOIS

CITY           SKY/WX    TMP DP  RH WIND       PRES   REMARKS
CHAMPAIGN      PTCLDY    73  71  93 E3        29.96R FOG
MATTOON        PTCLDY    73  70  90 CALM      29.94R FOG
$$

ILZ079-100>102-281100-
SOUTHWEST ILLINOIS

CITY           SKY/WX    TMP DP  RH WIND       PRES   REMARKS
BELLEVILLE     CLOUDY    73  73 100 CALM      29.93R
CAHOKIA*       PTCLDY    75  72  90 CALM      29.93S
SPARTA*        PTCLDY    73  73  98 CALM      29.95S
$$

ILZ064>066-069>071-074>076-080>082-084>086-088>090-092>094-281100-
SOUTH-CENTRAL ILLINOIS

CITY           SKY/WX    TMP DP  RH WIND       PRES   REMARKS
CARBONDALE     PTCLDY    75  73  93 CALM      29.94S
MT. VERNON     CLOUDY    73  68  83 CALM      29.95S
SALEM*         MOCLDY    75  72  91 CALM      29.94S FOG
$$

ILZ067-068-072-073-078-083-087-091-281100-
SOUTHEAST ILLINOIS

CITY           SKY/WX    TMP DP  RH WIND       PRES   REMARKS
LAWRENCEVILLE  MOCLDY    74  72  93 CALM      29.95S
HARRISBURG*    MOCLDY    73  73 100 CALM      29.96R FOG
ROBINSON*      MOCLDY    71  70  98 CALM      29.95S FOG
CARMI*         MOCLDY    73  69  86 CALM      29.94R FOG
$$

ABBREVIATIONS USED IN REMARKS
   TC - TEMPERATURE IN CELSIUS
  WCI - WIND CHILL INDEX
   HX - HEAT INDEX
  VSB - VISIBILITY
$$




USA.gov is the U.S. government's official web portal to all federal, state and local government web resources and services.